This is the latest recevied weather packets stored in our database for station/object WA9SDJ-13. If no packets are shown the sender has not sent any weather packets the latest 10 day(s).
| Time | Temp. | Humidity | Pressure | Rain* | Wind** | Luminosity | Snow |
|---|---|---|---|---|---|---|---|
| 1778026204 | 9.44° C | 87% | 1007.8 hPa | 0.76 mm | - | 0 W/m² | - |
| 1778026142 | 9.44° C | 87% | 1007.8 hPa | 0.76 mm | - | 0 W/m² | - |
| 1778026083 | 9.44° C | 87% | 1007.9 hPa | 0.76 mm | - | 5 W/m² | - |
| 1778026022 | 9.44° C | 87% | 1007.8 hPa | 0.76 mm | - | 5 W/m² | - |
| 1778025962 | 9.44° C | 87% | 1008 hPa | 1.02 mm | - | 5 W/m² | - |
| 1778025903 | 9.44° C | 87% | 1008 hPa | 1.02 mm | - | 5 W/m² | - |
| 1778025843 | 9.44° C | 87% | 1008 hPa | 1.02 mm | - | 9 W/m² | - |
| 1778025782 | 9.44° C | 87% | 1008 hPa | 1.02 mm | - | 12 W/m² | - |
| 1778025723 | 9.44° C | 87% | 1007.9 hPa | 1.02 mm | - | 14 W/m² | - |
| 1778025663 | 9.44° C | 87% | 1007.9 hPa | 1.02 mm | - | 14 W/m² | - |
| 1778025603 | 9.44° C | 87% | 1008 hPa | 1.02 mm | - | 12 W/m² | - |
| 1778025542 | 9.44° C | 87% | 1008.1 hPa | 1.02 mm | - | 11 W/m² | - |
| 1778025482 | 9.44° C | 87% | 1008.1 hPa | 1.02 mm | - | 7 W/m² | - |
| 1778025422 | 9.44° C | 87% | 1007.9 hPa | 1.02 mm | - | 7 W/m² | - |
| 1778025363 | 9.44° C | 87% | 1007.8 hPa | 1.02 mm | - | 9 W/m² | - |
| 1778025302 | 9.44° C | 87% | 1007.7 hPa | 1.27 mm | - | 11 W/m² | - |
| 1778025242 | 9.44° C | 87% | 1007.5 hPa | 1.27 mm | - | 16 W/m² | - |
| 1778025182 | 9.44° C | 87% | 1007.4 hPa | 1.27 mm | - | 16 W/m² | - |
| 1778025123 | 9.44° C | 87% | 1007.7 hPa | 1.27 mm | - | 16 W/m² | - |
| 1778025062 | 9.44° C | 87% | 1007.8 hPa | 1.27 mm | - | 14 W/m² | - |
| 1778025003 | 9.44° C | 87% | 1008 hPa | 1.02 mm | - | 12 W/m² | - |
| 1778024942 | 9.44° C | 87% | 1008 hPa | 1.27 mm | - | 12 W/m² | - |
| 1778024883 | 9.44° C | 87% | 1007.9 hPa | 1.27 mm | - | 14 W/m² | - |
| 1778024822 | 9.44° C | 87% | 1007.9 hPa | 1.27 mm | - | 18 W/m² | - |
| 1778024762 | 9.44° C | 87% | 1007.9 hPa | 1.27 mm | - | 19 W/m² | - |
* Rain latest hour (hover to see other rain measurements)
** Current wind speed in m/s (hover to see current wind gust speed)